Location: Altleiningen
(49.5078°N, 8.0741°E)
Time: 02:31:37
(UTC+00:00)

FALCON 9 DEB - Pass Details

Date: 03 March 2021
Orbit: 366 x 386 km, 53.0° (Epoch: 16 April)

Event Time Altitude Azimuth Distance (km) Brightness Sun altitude
Rises 19:29:04 0° 290° (WNW) 2,294 8.3 -22.5°
Reaches altitude 10° 19:31:10 10° 295° (WNW) 1,434 6.9 -22.8°
Enters shadow 19:33:21 37° 314° (NW) 626 4.3 -23.2°
